Findlay, OH

11:04 PM EDT on September 19, 2017 (GMT -0400)
Findlay

Weather History for KFDY - June, 2014

Change the Weather History Date:

Tuesday, June 24, 2014

  Actual Average Record
Temperature  
Mean Temperature 76 °F -  
Max Temperature 84 °F 80 °F 94 °F (1952)
Min Temperature 69 °F 60 °F 47 °F (1961)
Cooling Degree Days 10    
Growing Degree Days 26 (Base 50)    
Moisture  
Dew Point 68 °F    
Average Humidity 85    
Maximum Humidity 97    
Minimum Humidity 67    
Precipitation  
Precipitation 0.98 in - - ()
Sea Level Pressure  
Sea Level Pressure 29.90 in    
Wind  
Wind Speed 9 mph (SSW)    
Max Wind Speed 24 mph    
Max Gust Speed 32 mph    
Visibility 7 miles    
Events Rain , Thunderstorm    
Averages and records for this station are not official NWS values.
T = Trace of Precipitation, MM = Missing Value Source: NWS Daily Summary

Daily Weather History Graph

Daily Weather History Graph

Search for Another Location

Airport or City:

Trip Planner

Search our weather history database for the weather conditions in past years. The results will help you decide how hot, cold, wet, or windy it might be!

Date:

Astronomy

Jun. 24, 2014 Rise Set
Actual Time 6:03 AM EDT 9:10 PM EDT
Civil Twilight 5:29 AM EDT 9:44 PM EDT
Nautical Twilight 4:46 AM EDT 10:27 PM EDT
Astronomical Twilight 3:55 AM EDT 11:18 PM EDT
Moon 4:10 AM EDT (6/24) 6:47 PM EDT (6/24)
Length of Visible Light 16h 14m
Length of Day
15h 07m
Waning Crescent, 7% of the Moon is Illuminated
Jun 24
Waning Crescent
Jun 27
New
Jul 5
First Quarter
Jul 12
Full
Jul 18
Last Quarter

Hourly Weather History & Observations

Time (EDT) Temp. Heat Index Dew Point Humidity Pressure Visibility Wind Dir Wind Speed Gust Speed Precip Events Conditions
12:53 AM 70.0 °F - 68.0 °F 93% 29.86 in 10.0 mi SSE 5.8 mph - N/A   Clear
1:53 AM 70.0 °F - 68.0 °F 93% 29.89 in 9.0 mi South 5.8 mph - N/A   Clear
2:53 AM 69.1 °F - 66.9 °F 93% 29.90 in 8.0 mi South 3.5 mph - N/A   Clear
3:53 AM 70.0 °F - 66.9 °F 90% 29.90 in 9.0 mi SSE 5.8 mph - N/A   Mostly Cloudy
4:53 AM 70.0 °F - 66.9 °F 90% 29.90 in 10.0 mi SSE 6.9 mph - N/A   Mostly Cloudy
6:53 AM 69.1 °F - 66.0 °F 90% 29.91 in 6.0 mi South 8.1 mph - N/A   Clear
7:53 AM 71.1 °F - 66.9 °F 87% 29.91 in 8.0 mi SSW 12.7 mph - N/A   Clear
8:09 AM 73.0 °F - 68.0 °F 84% 29.94 in 10.0 mi SSW 12.7 mph - N/A Thunderstorm Scattered Clouds
8:29 AM 71.1 °F - 68.0 °F 90% 29.94 in 2.5 mi SSW 10.4 mph - 0.04 in Rain Rain
8:33 AM 71.1 °F - 68.0 °F 90% 29.94 in 3.0 mi SSW 11.5 mph - 0.04 in Rain , Thunderstorm Rain
8:53 AM 71.1 °F - 68.0 °F 90% 29.92 in 8.0 mi SSW 10.4 mph - 0.04 in Thunderstorm Thunderstorm
9:08 AM 71.1 °F - 68.0 °F 90% 29.94 in 8.0 mi South 9.2 mph - N/A   Mostly Cloudy
10:53 AM 78.1 °F - 70.0 °F 76% 29.91 in 10.0 mi SSW 12.7 mph - N/A   Partly Cloudy
11:53 AM 80.1 °F 83.2 °F 70.0 °F 71% 29.90 in 10.0 mi SSW 13.8 mph - N/A   Clear
12:53 PM 81.0 °F 84.9 °F 71.1 °F 72% 29.89 in 10.0 mi SSW 16.1 mph - N/A   Clear
1:53 PM 82.9 °F 87.5 °F 71.1 °F 67% 29.87 in 10.0 mi SSW 13.8 mph - N/A   Mostly Cloudy
2:22 PM 82.9 °F 88.0 °F 72.0 °F 69% 29.89 in 10.0 mi South 16.1 mph - N/A   Mostly Cloudy
2:30 PM 82.9 °F 88.0 °F 72.0 °F 69% 29.89 in 10.0 mi SSW 18.4 mph 23.0 mph N/A   Mostly Cloudy
2:53 PM 82.0 °F 86.3 °F 71.1 °F 69% 29.86 in 10.0 mi South 18.4 mph - N/A   Mostly Cloudy
3:53 PM 82.9 °F 87.5 °F 71.1 °F 67% 29.83 in 10.0 mi SW 17.3 mph 23.0 mph N/A   Partly Cloudy
4:53 PM 82.0 °F 85.9 °F 70.0 °F 67% 29.84 in 10.0 mi WSW 10.4 mph - N/A   Clear
5:41 PM 75.9 °F - 64.0 °F 67% 29.88 in 10.0 mi NW 13.8 mph 20.7 mph N/A Thunderstorm Thunderstorm
5:53 PM 72.0 °F - 64.9 °F 78% 29.90 in 4.0 mi WSW 24.2 mph 32.2 mph 0.04 in Rain , Thunderstorm Light Thunderstorms and Rain
5:55 PM 71.1 °F - 64.9 °F 81% 29.93 in 1.8 mi West 23.0 mph 32.2 mph 0.07 in Rain , Thunderstorm Heavy Thunderstorms and Rain
6:09 PM 69.1 °F - 66.9 °F 93% 29.90 in 1.0 mi NW 10.4 mph - 0.42 in Rain , Thunderstorm Heavy Thunderstorms and Rain
6:39 PM 70.0 °F - 68.0 °F 93% 29.90 in 1.8 mi West 6.9 mph - 0.57 in Rain , Thunderstorm Thunderstorms and Rain
6:47 PM 69.8 °F - 68.0 °F 94% 29.90 in 2.5 mi WSW 6.9 mph - 0.60 in Rain Rain
6:53 PM 70.0 °F - 68.0 °F 93% 29.87 in 3.0 mi Calm Calm - 0.60 in Rain Light Rain
7:45 PM 70.0 °F - 68.0 °F 93% 29.91 in 2.5 mi SSW 8.1 mph - 0.06 in Rain Rain
7:53 PM 70.0 °F - 69.1 °F 97% 29.89 in 3.0 mi South 8.1 mph - 0.08 in Rain Light Rain
8:53 PM 70.0 °F - 69.1 °F 97% 29.88 in 5.0 mi Calm Calm - 0.09 in Rain Light Rain
9:20 PM 70.0 °F - 69.1 °F 97% 29.91 in 5.0 mi SSE 5.8 mph - 0.03 in Rain Rain
9:53 PM 70.0 °F - 69.1 °F 97% 29.88 in 5.0 mi SE 4.6 mph - 0.10 in Rain Rain
10:11 PM 70.0 °F - 68.0 °F 93% 29.91 in 5.0 mi ESE 6.9 mph - 0.02 in Rain Light Rain
10:19 PM 70.0 °F - 68.0 °F 93% 29.91 in 6.0 mi ESE 5.8 mph - 0.02 in Rain Light Rain
10:53 PM 70.0 °F - 68.0 °F 93% 29.88 in 9.0 mi SSE 6.9 mph - 0.03 in Rain Light Rain
11:53 PM 69.1 °F - 68.0 °F 96% 29.86 in 10.0 mi SSE 3.5 mph - 0.00 in   Mostly Cloudy